(190686) = 2001 DG36 = 2004 SV54

Discovered at Socorro on 2001-02-19 by LINEAR.

Orbit

Orbit type: Main Belt

Note: WebGL enabled browser required.

epoch2024-03-31.0
epoch JD2460400.5
perihelion date2022-09-04.44193
perihelion JD2459826.94193
argument of perihelion (°)253.22974
ascending node (°)140.68214
inclination (°)10.23935
eccentricity0.2839186
perihelion distance (AU)1.9510651
Tisserand w.r.t. Jupiter3.3
ΔV w.r.t. Earth (km/sec)9.3
semimajor axis (AU)2.7246415
mean anomaly (°)125.69476
mean daily motion (°/day)0.21914920
aphelion distance (AU)3.498
period (years)4.5
P-vector [x]0.82023454
P-vector [y]0.56875718
P-vector [z]0.06107833
Q-vector [x]-0.56082893
Q-vector [y]0.77855552
Q-vector [z]0.28164200
absolute magnitude15.7
phase slope0.15
uncertainty0
referenceMPEC 2024-E109
observations used808
oppositions15
arc length (days)8948
first opposition used1999
last opposition used2024
residual rms (arc-secs)0.61
perturbers coarse indicatorM-v
perturbers precise indicator003Ek
first observation date used1999-09-05.0
last observation date used2024-03-05.0
computer nameMPCLINUX
JD of orbit computation2456760.902420
perihelion JD uncertainty (days)3.5863E-05
argument of perihelion uncertainty (°)2.7615E-05
ascending node uncertainty (°)2.5194E-05
inclination uncertainty (°)4.6296E-06
eccentricity uncertainty 4.4281E-08
perihelion distance uncertainty (AU)1.1930E-07
Minimum Orbit Intersection Distances (in AU)
for orbit epoch: 2460400.5, reference: E2024-GH2
Mercury1.62487
Venus1.23636
Earth0.98555
Mars0.57829
Jupiter2.046
Saturn6.24089
Uranus15.14
Neptune27.2027

Observations

818 total observations over interval: 1999 09 05.25685 – 2024 03 05.408719
These data are available for download (format description).

Date (UT) J2000 RA J2000 Dec Magn Location Ref
1999 09 05.25685 20 54 47.41 -18 24 35.7 19.0 V 691 – Steward Observatory, Kitt Peak-Spacewatch MPS 115657
1999 09 05.27904 20 54 46.63 -18 24 45.7 19.8 V 691 – Steward Observatory, Kitt Peak-Spacewatch MPS 115657
1999 09 05.30104 20 54 45.88 -18 24 55.9 19.0 V 691 – Steward Observatory, Kitt Peak-Spacewatch MPS 115657
2001 01 21.38034 09 48 01.34 +11 57 52.1 19.0   704 – Lincoln Laboratory ETS, New Mexico MPS 28046
2001 01 21.39538 09 48 00.64 +11 57 59.5 19.4   704 – Lincoln Laboratory ETS, New Mexico MPS 28046
2001 01 21.41041 09 47 59.98 +11 58 05.2 19.5   704 – Lincoln Laboratory ETS, New Mexico MPS 28046
2001 02 19.24313 09 23 01.60 +15 47 44.5 19.0   704 – Lincoln Laboratory ETS, New Mexico MPS 27041
2001 02 19.25752 09 23 00.83 +15 47 51.4 19.5   704 – Lincoln Laboratory ETS, New Mexico MPS 27041
2001 02 19.27164 09 23 00.07 +15 47 58.2 19.5   704 – Lincoln Laboratory ETS, New Mexico MPS 27041
2001 02 20.32006 09 22 07.93 +15 55 41.2 19.4   704 – Lincoln Laboratory ETS, New Mexico MPS 27041
2001 02 20.33435 09 22 07.15 +15 55 47.0 19.2   704 – Lincoln Laboratory ETS, New Mexico MPS 27041
2001 02 20.34860 09 22 06.41 +15 55 53.4 19.3   704 – Lincoln Laboratory ETS, New Mexico MPS 27041
2001 02 22.24297 09 20 34.68 +16 09 31.1 19.0   704 – Lincoln Laboratory ETS, New Mexico MPS 27042
2001 02 22.25700 09 20 33.97 +16 09 38.0 19.2   704 – Lincoln Laboratory ETS, New Mexico MPS 27042
2001 02 22.27169 09 20 33.28 +16 09 44.9 19.4   704 – Lincoln Laboratory ETS, New Mexico MPS 27042
2001 02 23.26054 09 19 46.62 +16 16 42.2 19.7 V 691 – Steward Observatory, Kitt Peak-Spacewatch MPS 27042
2001 02 23.26619 09 19 46.34 +16 16 44.4 19.9 V 691 – Steward Observatory, Kitt Peak-Spacewatch MPS 27042
2001 02 23.27200 09 19 46.06 +16 16 46.7 19.1 V 691 – Steward Observatory, Kitt Peak-Spacewatch MPS 27042
2001 02 27.25217 09 16 48.01 +16 43 32.3 20.0 V 691 – Steward Observatory, Kitt Peak-Spacewatch MPS 27042
2001 02 27.26003 09 16 47.66 +16 43 35.3 19.9 V 691 – Steward Observatory, Kitt Peak-Spacewatch MPS 27042
2001 02 27.27137 09 16 47.16 +16 43 39.8 19.9 V 691 – Steward Observatory, Kitt Peak-Spacewatch MPS 27042
2001 03 02.26532 09 14 45.01 +17 02 24.2 19.9 V 691 – Steward Observatory, Kitt Peak-Spacewatch MPS 27042
2001 03 02.29211 09 14 43.93 +17 02 33.7 20.0 V 691 – Steward Observatory, Kitt Peak-Spacewatch MPS 27042
2001 03 02.31962 09 14 42.76 +17 02 43.8 20.2 V 691 – Steward Observatory, Kitt Peak-Spacewatch MPS 27042
2004 09 22.40638 04 40 28.86 +07 40 18.6 19.3   704 – Lincoln Laboratory ETS, New Mexico MPS 115361
2004 09 22.41885 04 40 29.69 +07 40 14.1 19.9   704 – Lincoln Laboratory ETS, New Mexico MPS 115361
2004 09 22.43124 04 40 30.42 +07 40 10.9 19.4   704 – Lincoln Laboratory ETS, New Mexico MPS 115361
2004 09 22.44363 04 40 31.20 +07 40 06.7 19.2   704 – Lincoln Laboratory ETS, New Mexico MPS 115361
2004 09 22.45603 04 40 31.96 +07 40 03.4 19.2   704 – Lincoln Laboratory ETS, New Mexico MPS 115361
2004 09 24.35652 04 42 28.70 +07 30 57.4 19.1   704 – Lincoln Laboratory ETS, New Mexico MPS 115361
2004 09 24.36864 04 42 29.43 +07 30 52.9 19.2   704 – Lincoln Laboratory ETS, New Mexico MPS 115361
2004 09 24.38078 04 42 30.19 +07 30 50.6 19.7   704 – Lincoln Laboratory ETS, New Mexico MPS 115361
2004 09 24.40503 04 42 31.52 +07 30 43.0 20.1   704 – Lincoln Laboratory ETS, New Mexico MPS 115361
2004 10 07.39434 04 52 52.77 +06 20 56.5 18.4   704 – Lincoln Laboratory ETS, New Mexico MPS 115866
2004 10 07.40547 04 52 53.14 +06 20 52.7 18.3   704 – Lincoln Laboratory ETS, New Mexico MPS 115866
2004 10 07.41652 04 52 53.56 +06 20 49.0 19.2   704 – Lincoln Laboratory ETS, New Mexico MPS 115866
2004 10 09.34798 04 53 57.70 +06 09 36.3 18.4 R 699 – Lowell Observatory-LONEOS MPS 116764
2004 10 09.36339 04 53 58.19 +06 09 30.9   699 – Lowell Observatory-LONEOS MPS 116764
2004 10 09.37880 04 53 58.61 +06 09 25.3   699 – Lowell Observatory-LONEOS MPS 116764
2004 10 09.39422 04 53 59.10 +06 09 19.9   699 – Lowell Observatory-LONEOS MPS 116764
2004 11 05.48660 04 54 42.63 +03 40 42.1 17.9 R 699 – Lowell Observatory-LONEOS MPS 118336
2004 11 05.49677 04 54 42.39 +03 40 40.5   699 – Lowell Observatory-LONEOS MPS 118336
2004 11 05.50649 04 54 42.14 +03 40 38.6   699 – Lowell Observatory-LONEOS MPS 118336
2004 11 05.51622 04 54 41.72 +03 40 36.1   699 – Lowell Observatory-LONEOS MPS 118336
2004 11 11.24226 04 51 36.83 +03 18 47.8 17.7 R 699 – Lowell Observatory-LONEOS MPS 119812
2004 11 11.25685 04 51 36.22 +03 18 45.3   699 – Lowell Observatory-LONEOS MPS 119812
2004 11 11.27143 04 51 35.66 +03 18 42.2   699 – Lowell Observatory-LONEOS MPS 119812
2004 11 11.28604 04 51 35.11 +03 18 39.3   699 – Lowell Observatory-LONEOS MPS 119812
2004 11 21.50829 04 44 01.49 +02 56 48.6 19.2   608 – Haleakala-AMOS MPS 120407
2004 11 21.51976 04 44 00.92 +02 56 48.0 19.3   608 – Haleakala-AMOS MPS 120407
2004 11 21.53036 04 44 00.31 +02 56 47.7 19.1   608 – Haleakala-AMOS MPS 120407
2004 12 07.25517 04 30 20.80 +03 15 16.7 18.3   704 – Lincoln Laboratory ETS, New Mexico MPS 121137
2004 12 07.26759 04 30 20.08 +03 15 19.9 18.9   704 – Lincoln Laboratory ETS, New Mexico MPS 121137
2004 12 07.28030 04 30 19.48 +03 15 22.4 18.9   704 – Lincoln Laboratory ETS, New Mexico MPS 121137
2004 12 07.29279 04 30 18.72 +03 15 25.1 18.5   704 – Lincoln Laboratory ETS, New Mexico MPS 121137
2004 12 07.30533 04 30 17.99 +03 15 27.6 18.5   704 – Lincoln Laboratory ETS, New Mexico MPS 121137
2004 12 12.28453 04 26 16.03 +03 35 00.8 19.2   704 – Lincoln Laboratory ETS, New Mexico MPS 121670
2004 12 12.29996 04 26 15.34 +03 35 05.4 18.6   704 – Lincoln Laboratory ETS, New Mexico MPS 121670
2004 12 12.31528 04 26 14.58 +03 35 09.6 18.4   704 – Lincoln Laboratory ETS, New Mexico MPS 121670
2004 12 12.33078 04 26 13.85 +03 35 13.9 18.3   704 – Lincoln Laboratory ETS, New Mexico MPS 121670
2004 12 19.25736 04 21 24.53 +04 12 30.1 17.5 R 703 – Catalina Sky Survey MPS 122657
2004 12 19.26374 04 21 24.26 +04 12 32.2 17.2 R 703 – Catalina Sky Survey MPS 122657
2004 12 19.26430 04 21 24.30 +04 12 32.9 18.3 R 699 – Lowell Observatory-LONEOS MPS 122657
2004 12 19.27010 04 21 24.01 +04 12 34.6 17.6 R 703 – Catalina Sky Survey MPS 122657
2004 12 19.27646 04 21 23.75 +04 12 37.5 17.4 R 703 – Catalina Sky Survey MPS 122657
2004 12 19.28050 04 21 23.65 +04 12 39.1   699 – Lowell Observatory-LONEOS MPS 122657
2004 12 19.29671 04 21 22.98 +04 12 44.9   699 – Lowell Observatory-LONEOS MPS 122657
2004 12 19.31292 04 21 22.30 +04 12 51.2   699 – Lowell Observatory-LONEOS MPS 122657
2004 12 20.16840 04 20 51.77 +04 18 11.1 18.2 R 699 – Lowell Observatory-LONEOS MPS 122657
2004 12 20.18947 04 20 51.06 +04 18 18.5   699 – Lowell Observatory-LONEOS MPS 122657
2004 12 20.21055 04 20 50.16 +04 18 27.6   699 – Lowell Observatory-LONEOS MPS 122657
2004 12 20.23163 04 20 49.39 +04 18 34.9   699 – Lowell Observatory-LONEOS MPS 122657
2005 01 15.09072 04 15 40.49 +07 51 13.9 18.5 R 699 – Lowell Observatory-LONEOS MPS 124644
2005 01 15.10534 04 15 40.58 +07 51 22.4   699 – Lowell Observatory-LONEOS MPS 124644
2005 01 15.11998 04 15 40.78 +07 51 31.8   699 – Lowell Observatory-LONEOS MPS 124644
2005 01 15.13462 04 15 40.90 +07 51 38.9   699 – Lowell Observatory-LONEOS MPS 124644
2007 05 10.31459 15 49 00.30 -05 17 34.2 20.8 V 691 – Steward Observatory, Kitt Peak-Spacewatch MPS 208802
2007 05 10.33569 15 48 59.27 -05 17 29.7 20.6 V 691 – Steward Observatory, Kitt Peak-Spacewatch MPS 208802
2007 05 10.35334 15 48 58.34 -05 17 26.3 21.3 V 691 – Steward Observatory, Kitt Peak-Spacewatch MPS 208802
2008 07 25.36336 21 36 32.04 -12 08 09.3 18.7 V 703 – Catalina Sky Survey MPS 252888
2008 07 25.36751 21 36 31.86 -12 08 10.7 18.3 V 703 – Catalina Sky Survey MPS 252888
2008 07 25.37168 21 36 31.68 -12 08 12.8 18.7 V 703 – Catalina Sky Survey MPS 252888
2008 07 25.37582 21 36 31.46 -12 08 15.0 18.6 V 703 – Catalina Sky Survey MPS 252888
2008 07 29.13792 21 34 07.49 -12 38 18.3 18.3 V J75 – OAM Observatory, La Sagra MPS 253972
2008 07 29.15172 21 34 06.88 -12 38 25.1 18.2 V J75 – OAM Observatory, La Sagra MPS 253972
2008 07 29.16556 21 34 06.31 -12 38 32.0 18.5 V J75 – OAM Observatory, La Sagra MPS 253972
